Regional Weather Roundup
Issued by NWS Wilmington, NC

Home | Current Version | Previous Version | Text Only | Print | Product List | Glossary On
Versions: 1 2 3 4 5 6 7 8 9 10 11 12 13 14 15 16 17 18 19 20 21 22 23 24 25 26 27
000
ASUS42 KILM 220413
RWRILM
RWRILM
REGIONAL HOURLY WEATHER ROUNDUP
NATIONAL WEATHER SERVICE WILMINGTON NC
1100 PM EST TUE FEB 21 2017

NOTE: "FAIR" INDICATES FEW OR NO CLOUDS BELOW 12,000 FEET WITH NO
SIGNIFICANT WEATHER AND/OR OBSTRUCTIONS TO VISIBILITY.

...............WFO WILMINGTON COUNTY WARNING AREA...............

......COASTAL NC AND SC COUNTIES......

CITY           SKY/WX    TMP DP  RH WIND       PRES   REMARKS
WILMINGTON     PTCLDY    53  52  96 E5        30.11F
N MYRTLE BEACH CLOUDY    58  54  86 NE6       30.08F
MYRTLE BEACH   NOT AVBL

......INLAND NC AND SC COUNTIES.......

CITY           SKY/WX    TMP DP  RH WIND       PRES   REMARKS
LUMBERTON      MOCLDY    56  52  86 E5        30.09F
ELIZABETHTOWN  MOCLDY    56  51  82 CALM      30.11F
WHITEVILLE     MOCLDY    57  51  81 E3        30.09F
FLORENCE       CLOUDY    60  54  80 E10       30.07F
DARLINGTON     CLOUDY    58  49  72 E6        30.08F
KINGSTREE      FAIR      57  52  82 E5        30.07F
HARTSVILLE     MOCLDY    59  50  72 E6        30.07F
BENNETTSVILLE  NOT AVBL
CONWAY         MOCLDY    54  52  94 CALM      30.09F
GEORGETOWN     FAIR      55  54  94 E3        30.08F
MARION         FAIR      55  50  82 CALM      30.09F

....................REST OF NORTH CAROLINA......................

.........EASTERN NC.........

CITY           SKY/WX    TMP DP  RH WIND       PRES   REMARKS
CAPE HATTERAS  CLOUDY    61  50  67 S7        30.15S
JACKSONVILLE   PTCLDY    50  48  93 NE3       30.13F
MOREHEAD CITY  CLOUDY    53  51  93 NE5       30.13F
KENANSVILLE    NOT AVBL
NEW BERN       CLOUDY    51  50  96 NE3       30.15F
ELIZABETH CITY PTCLDY    47  44  90 E5        30.16F

.........CENTRAL NC.........

CITY           SKY/WX    TMP DP  RH WIND       PRES   REMARKS
RALEIGH DURHAM MOCLDY    54  41  61 SE5       30.12F
ROCKY MOUNT    CLOUDY    51  46  83 SE3       30.13F
ROANOKE RAPIDS NOT AVBL
FAYETTEVILLE   CLOUDY    56  47  71 E6        30.10F
HOFFMAN        MOCLDY    51  44  78 NE3       30.09F

.........WESTERN NC.........

CITY           SKY/WX    TMP DP  RH WIND       PRES   REMARKS
CHARLOTTE      CLOUDY    61  43  51 E8        30.08F
GREENSBORO     CLOUDY    57  39  51 SE6       30.09F
HICKORY        NOT AVBL
BOONE          NOT AVBL
ASHEVILLE      NOT AVBL

.....................REST OF SOUTH CAROLINA.....................

.........EASTERN SC.........

CITY           SKY/WX    TMP DP  RH WIND       PRES   REMARKS
CHARLESTON     MOCLDY    59  57  93 E8        30.04F
BEAUFORT MCAS  MOCLDY    64  61  90 E10       30.01F
HILTON HEAD    CLOUDY    63  63 100 VRB6      30.01F

.........CENTRAL SC.........

CITY           SKY/WX    TMP DP  RH WIND       PRES   REMARKS
COLUMBIA       MOCLDY    63  54  72 E9        30.04F
ORANGEBURG     CLOUDY    59  55  87 E3        30.04F
SUMTER SHAW    CLOUDY    60  53  76 E7        30.04F

.........WESTERN SC.........

CITY           SKY/WX    TMP DP  RH WIND       PRES   REMARKS
GREENVILLE     NOT AVBL
ROCK HILL      LGT RAIN  55  51  86 CALM      30.08F
ANDERSON       CLOUDY    62  50  64 E9        30.03F
CLEMSON        NOT AVBL
GREENWOOD      CLOUDY    61  51  70 E3        30.05F


...................COASTAL AND OFFSHORE REPORTS..................

................LOCAL PIERS AND NC RESERVE................


STATION/POSITION TIME  SKY/WX   TEMP    WIND        PRES    VSBY
                                AIR SEA DIR/SP/G
                 (UTC)          (F)     (DEG/KT/KT) (MB)    (MI)
JOHNY MRCER PIER 0348            57 59   20/  9/ 10 1018.4F
NC RESRV MASNBRO 0245            57      60/  4     1019.0
OCEAN CREST PIER NOT AVBL
SPRINGMAID  PIER 0348                               1018.0F


................COASTAL AND OFFSHORE BUOYS................


STATION/POSITION TIME  SKY/WX   TEMP    WIND        PRES    VSBY
                                AIR SEA DIR/SP/G
                 (UTC)          (F)     (DEG/KT/KT) (MB)    (MI)
DIMNDSHOAL 41025 0350            62 74  130/  8/ 12 1021.2F
WVE H/P(F/S)=  4/ 9 SWL H/P/D(F/S/D)=  5/ 40/ 9

CAPE LOOKOUT     0400            60     120/  5/  5 1019.7F
ONSLOW BAY 41036 NOT AVBL
ONSLOW BAY 41064 0308            65     140/ 14/ 16 1019.9F
ONSLOW BAY 41159 0343               69                N/A
WVE H/P(F/S)=  4/ 6

MASNBO INL 41110 0359               56                N/A
WVE H/P(F/S)=  3/ 7

WILM HARBR 41108 0347               57                N/A
WVE H/P(F/S)=  2/ 5

27SE WRITB 41037 0308            66 64  130/ 12/ 17 1018.9F
FRYING PAN 41013 0350            68 68  110/ 14/ 17 1018.8F
WVE H/P(F/S)=  4/ 7 SWL H/P/D(F/S/D)=  2/ 90/ 8

SUNST NRSH 41024 0308            58 56   70/  6/  8 1019.2F
CAPRS NRSH 41029 0308            61 59   60/  6/ 10 1017.7F
EDISTO     41004 0350            70 69  130/ 14/ 17 1016.9F
WVE H/P(F/S)=  4/ 5



..........OFFSHORE BUOYS BEYOND 100 NM OFFSHORE...........
.....IN A TRIANGLE---HAT TO BERMUDA TO BAHAMAS TO HAT.....


STATION/POSITION TIME  SKY/WX   TEMP    WIND        PRES    VSBY
                                AIR SEA DIR/SP/G
                 (UTC)          (F)     (DEG/KT/KT) (MB)    (MI)
150E HAT   41001 NOT AVBL
W BERMUDA  41048 0350            61 68   30/ 14/ 19 1018.6F
WVE H/P(F/S)=  8/ 9 SWL H/P/D(F/S/D)=  7/ 10/ 9

ATLANTIC S 41049 0350            66 72  340/ 19/ 25 1012.4R
WVE H/P(F/S)= 10/ 9 SWL H/P/D(F/S/D)=  7/350/ 9

E BAHAMAS  41046 0400            75 78   40/ 12/ 14 1013.9
NE BAHAMAS 41047 0400            68 74   60/ 14/ 17 1016.8
120E CANVRL41010 NOT AVBL

END




USA.gov is the U.S. government's official web portal to all federal, state and local government web resources and services.